Change the Weather History Date:

Thursday, November 1, 2012

  Actual Average (KOWB) Record (KOWB)
Temperature  
Mean Temperature 48 °F -  
Max Temperature 62 °F 68 °F 87 °F (1987)
Min Temperature 33 °F 45 °F 24 °F (1993)
Degree Days  
Heating Degree Days 18    
Moisture  
Dew Point 31 °F    
Average Humidity 56    
Maximum Humidity 81    
Minimum Humidity 29    
Precipitation  
Precipitation 0.00 in - - ()
Sea Level Pressure  
Sea Level Pressure 29.96 in    
Wind  
Wind Speed 7 mph ()    
Max Wind Speed 12 mph    
Max Gust Speed 10 mph    
Visibility 10.0 miles    
Events      
Averages and records for this station are not official NWS values.
T = Trace of Precipitation, MM = Missing Value Source: Averaged Metar Reports

Daily Weather History Graph

Daily Weather History Graph

Search for Another Location

Airport or City:

Trip Planner

Search our weather history database for the weather conditions in past years. The results will help you decide how hot, cold, wet, or windy it might be!

Date:

Astronomy

Nov. 01, 2012 Rise Set
Actual Time 7:14 AM CDT 5:51 PM CDT
Civil Twilight 6:47 AM CDT 6:18 PM CDT
Nautical Twilight 6:16 AM CDT 6:48 PM CDT
Astronomical Twilight 5:46 AM CDT 7:19 PM CDT
Moon 7:50 PM CDT (11/1) 9:44 AM CDT (11/1)
Length of Visible Light 11h 30m
Length of Day
10h 36m
Waning Gibbous, 93% of the Moon is Illuminated
Nov 1
Waning Gibbous
Nov 6
Last Quarter
Nov 13
New
Nov 20
First Quarter
Nov 28
Full

Hourly Weather History & Observations

Time (CDT) Temp. Windchill Dew Point Humidity Pressure Visibility Wind Dir Wind Speed Gust Speed Precip Events Conditions
12:15 AM 37.4 °F 32.8 °F 29.1 °F 72% 29.96 in 10.0 mi West 5.8 mph - N/A   Clear
12:35 AM 37.8 °F 32.5 °F 29.1 °F 71% 29.95 in 10.0 mi West 6.9 mph - N/A   Clear
12:55 AM 37.4 °F 32.1 °F 29.1 °F 72% 29.96 in 10.0 mi West 6.9 mph - N/A   Clear
1:15 AM 36.9 °F 31.4 °F 29.1 °F 74% 29.95 in 10.0 mi West 6.9 mph - N/A   Clear
1:35 AM 36.7 °F 31.2 °F 28.9 °F 74% 29.95 in 10.0 mi West 6.9 mph - N/A   Clear
1:55 AM 36.3 °F 30.8 °F 28.6 °F 74% 29.95 in 10.0 mi West 6.9 mph - N/A   Clear
2:15 AM 36.7 °F 31.2 °F 28.4 °F 72% 29.95 in 10.0 mi West 6.9 mph - N/A   Clear
2:35 AM 36.1 °F 31.4 °F 28.2 °F 73% 29.95 in 10.0 mi West 5.8 mph - N/A   Clear
2:55 AM 35.1 °F 28.6 °F 28.0 °F 76% 29.95 in 10.0 mi West 8.1 mph - N/A   Clear
3:15 AM 35.6 °F 29.2 °F 28.2 °F 75% 29.96 in 10.0 mi West 8.1 mph - N/A   Clear
3:35 AM 35.4 °F 29.7 °F 28.4 °F 76% 29.95 in 10.0 mi West 6.9 mph - N/A   Clear
3:55 AM 35.2 °F 28.8 °F 28.0 °F 75% 29.95 in 10.0 mi West 8.1 mph - N/A   Clear
4:15 AM 35.8 °F 29.4 °F 28.2 °F 74% 29.95 in 10.0 mi West 8.1 mph - N/A   Clear
4:35 AM 34.9 °F 28.3 °F 28.2 °F 77% 29.95 in 10.0 mi West 8.1 mph - N/A   Clear
4:55 AM 34.7 °F 28.1 °F 28.4 °F 78% 29.96 in 10.0 mi West 8.1 mph - N/A   Clear
5:15 AM 33.4 °F 25.9 °F 28.2 °F 81% 29.96 in 10.0 mi West 9.2 mph - N/A   Clear
5:35 AM 34.3 °F 27.0 °F 28.2 °F 78% 29.98 in 10.0 mi West 9.2 mph - N/A   Clear
5:55 AM 34.5 °F 28.6 °F 27.7 °F 76% 29.98 in 10.0 mi West 6.9 mph - N/A   Clear
6:15 AM 34.2 °F 27.5 °F 27.9 °F 78% 29.98 in 10.0 mi West 8.1 mph - N/A   Clear
6:35 AM 34.2 °F 28.2 °F 27.5 °F 77% 29.98 in 10.0 mi West 6.9 mph - N/A   Clear
6:55 AM 34.0 °F 28.0 °F 27.5 °F 77% 29.99 in 10.0 mi West 6.9 mph - N/A   Clear
7:15 AM 34.3 °F 29.2 °F 27.9 °F 77% 29.99 in 10.0 mi West 5.8 mph - N/A   Clear
7:35 AM 34.7 °F 29.6 °F 28.4 °F 78% 30.00 in 10.0 mi West 5.8 mph - N/A   Clear
7:55 AM 36.9 °F 30.7 °F 28.0 °F 70% 29.99 in 10.0 mi West 8.1 mph - N/A   Clear
8:15 AM 38.3 °F 32.5 °F 28.6 °F 68% 30.00 in 10.0 mi West 8.1 mph - N/A   Clear
8:35 AM 39.4 °F 34.5 °F 30.0 °F 69% 30.01 in 10.0 mi West 6.9 mph - N/A   Clear
8:55 AM 42.4 °F 37.5 °F 30.6 °F 63% 30.01 in 10.0 mi West 8.1 mph - N/A   Clear
9:15 AM 43.9 °F 39.9 °F 30.7 °F 60% 30.01 in 10.0 mi West 6.9 mph - N/A   Clear
9:35 AM 44.8 °F 41.0 °F 29.7 °F 55% 30.01 in 10.0 mi West 6.9 mph - N/A   Scattered Clouds
9:55 AM 45.9 °F 42.9 °F 30.4 °F 55% 30.02 in 10.0 mi WSW 5.8 mph - N/A   Mostly Cloudy
10:15 AM 47.5 °F - 29.7 °F 50% 30.02 in 10.0 mi West 3.5 mph - N/A   Scattered Clouds
10:35 AM 48.9 °F - 30.0 °F 48% 30.02 in 10.0 mi WSW 5.8 mph - N/A   Scattered Clouds
10:55 AM 49.6 °F - 30.6 °F 48% 30.02 in 10.0 mi WSW 6.9 mph - N/A   Scattered Clouds
11:15 AM 51.4 °F - 28.9 °F 42% 30.02 in 10.0 mi WSW 9.2 mph - N/A   Clear
11:35 AM 52.5 °F - 28.2 °F 39% 30.01 in 10.0 mi West 8.1 mph - N/A   Clear
11:55 AM 53.8 °F - 28.0 °F 37% 30.02 in 10.0 mi West 8.1 mph - N/A   Clear
12:15 PM 55.6 °F - 28.9 °F 36% 30.01 in 10.0 mi West 10.4 mph - N/A   Clear
12:35 PM 57.2 °F - 27.7 °F 32% 29.99 in 10.0 mi WNW 8.1 mph - N/A   Clear
12:55 PM 58.3 °F - 28.2 °F 32% 29.98 in 10.0 mi West 8.1 mph - N/A   Clear
1:15 PM 58.6 °F - 26.8 °F 30% 29.97 in 10.0 mi West 5.8 mph - N/A   Clear
1:35 PM 60.1 °F - 28.6 °F 30% 29.97 in 10.0 mi WNW 11.5 mph - N/A   Clear
1:55 PM 59.5 °F - 26.8 °F 29% 29.97 in 10.0 mi West 8.1 mph - N/A   Clear
2:15 PM 60.8 °F - 28.9 °F 30% 29.96 in 10.0 mi NW 4.6 mph 10.4 mph N/A   Scattered Clouds
2:35 PM 61.0 °F - 28.2 °F 29% 29.96 in 10.0 mi West 9.2 mph - N/A   Mostly Cloudy
2:55 PM 61.0 °F - 29.1 °F 30% 29.96 in 10.0 mi NW 6.9 mph - N/A   Overcast
3:15 PM 62.2 °F - 31.3 °F 31% 29.95 in 10.0 mi West 10.4 mph - N/A   Overcast
3:35 PM 62.6 °F - 32.0 °F 32% 29.94 in 10.0 mi West 9.2 mph - N/A   Overcast
3:55 PM 62.1 °F - 31.3 °F 31% 29.94 in 10.0 mi West 11.5 mph - N/A   Scattered Clouds
4:15 PM 60.6 °F - 32.0 °F 34% 29.94 in 10.0 mi West 9.2 mph - N/A   Scattered Clouds
4:35 PM 61.5 °F - 32.2 °F 33% 29.93 in 10.0 mi West 9.2 mph - N/A   Scattered Clouds
4:55 PM 60.4 °F - 33.1 °F 36% 29.93 in 10.0 mi West 8.1 mph - N/A   Scattered Clouds
5:15 PM 59.2 °F - 35.2 °F 41% 29.93 in 10.0 mi WSW 6.9 mph - N/A   Mostly Cloudy
5:35 PM 58.5 °F - 34.9 °F 41% 29.93 in 10.0 mi WSW 6.9 mph - N/A   Overcast
5:55 PM 57.2 °F - 35.8 °F 45% 29.93 in 10.0 mi WSW 6.9 mph - N/A   Overcast
6:15 PM 57.4 °F - 35.8 °F 44% 29.93 in 10.0 mi WSW 6.9 mph - N/A   Overcast
6:35 PM 56.5 °F - 36.5 °F 47% 29.93 in 10.0 mi WSW 5.8 mph - N/A   Overcast
6:55 PM 54.9 °F - 37.6 °F 52% 29.93 in 10.0 mi WSW 5.8 mph - N/A   Overcast
7:15 PM 55.4 °F - 37.8 °F 52% 29.93 in 10.0 mi WSW 6.9 mph - N/A   Overcast
7:35 PM 55.2 °F - 37.8 °F 52% 29.92 in 10.0 mi SW 5.8 mph - N/A   Overcast
7:55 PM 54.5 °F - 38.3 °F 54% 29.92 in 10.0 mi SW 5.8 mph - N/A   Overcast
8:15 PM 54.5 °F - 38.3 °F 54% 29.92 in 10.0 mi WSW 6.9 mph - N/A   Overcast
8:35 PM 55.0 °F - 37.8 °F 52% 29.92 in 10.0 mi SW 6.9 mph - N/A   Overcast
8:55 PM 55.2 °F - 37.8 °F 52% 29.92 in 10.0 mi SW 5.8 mph - N/A   Overcast
9:15 PM 54.0 °F - 38.8 °F 57% 29.93 in 10.0 mi SW 5.8 mph - N/A   Overcast
9:35 PM 54.3 °F - 38.7 °F 55% 29.93 in 10.0 mi WSW 6.9 mph - N/A   Overcast
9:55 PM 54.5 °F - 38.5 °F 55% 29.92 in 10.0 mi SW 6.9 mph - N/A   Overcast
10:15 PM 51.4 °F - 38.3 °F 61% 29.92 in 10.0 mi SW 6.9 mph - N/A   Mostly Cloudy
10:35 PM 49.6 °F - 37.8 °F 64% 29.92 in 10.0 mi WSW 9.2 mph - N/A   Clear
10:55 PM 50.2 °F - 37.6 °F 62% 29.91 in 10.0 mi WSW 10.4 mph - N/A   Clear
11:15 PM 50.0 °F - 37.8 °F 63% 29.91 in 10.0 mi WSW 8.1 mph - N/A   Clear
11:35 PM 49.1 °F - 37.8 °F 65% 29.91 in 10.0 mi WSW 8.1 mph - N/A   Clear
11:55 PM 50.0 °F - 37.4 °F 62% 29.91 in 10.0 mi WSW 8.1 mph - N/A   Clear